Find Starlink 34218

NORAD ID: 64338 Int'l Des: 2025-124 Owner: SPXS Country: US Constellation: starlink operational
LEOCIRCULAR

リアルタイム位置

3D地球を読み込み中...

Starlink 34218について

説明を読み込み中...

次回通過

Passes for default location (London). Set your location on the main map for personalized predictions.

高度履歴

Loading altitude history...

軌道要素

1 64338U 25124X 26104.20360422 .00010220 00000-0 38031-3 0 9993
2 64338 43.0029 277.5306 0002194 267.2895 92.7705 15.27587648 47250
Epoch: Apr 14, 2026 • Age: 13 hours

現在のステータス

高度 487.2 km
速度 7.62 km/s
衛星直下点 -21.82°S, 1.18°E
打ち上げ日 Jun 10, 2025
運用期間 0.8 years
タイプ internet

技術仕様

分類 Payload
質量 575.00 kg
乾燥質量 530.00 kg
総質量 575.00 kg
長さ 0.30 m
直径 4.10 m
スパン 29.00 m
形状 Box + pan
製造者 SPXS
バスタイプ Starlink V2MO
フェーズステータス In Orbit
所有者/国 SPXS/US

Most Searched